Terug naar catalogus

PRSC-EO2

ActiefWetenschapSSO
NORAD 67746·PAYLOAD·🇨🇳 China
Deze satellietnaam is nog niet bevestigd door officiële bronnen.

Gelanceerd Feb 12, 2026 vanaf South China Sea Launch Area

Loading…

Volgende Passages (komende 24 uur)

TLE

VersSource: Space-Track

Epoch: Sep 13, 2026, 21:45 UTC

1 67746U 26027A   26256.90630636  .00005193  00000-0  24395-3 0  9995
2 67746  97.5177  24.6299 0008214 263.6561  96.3739 15.20028107 32439

Volg PRSC-EO2 in realtime met AllMySat

Download on the App Store